Flag for United Kingdom Weather past 2 weeks in Ipswich, England, United Kingdom

Now
61 °F

Fog.


Feels Like: 61 °F
Forecast: 59 / 73 °F
Wind: 7 mph from Northeast

Location: Wattisham

Current Time: Sep 18, 2014 at 11:01:13 PM

Latest Report: Sep 18, 2014 at 9:50 PM


Visibility: 1 mi

Pressure: 29.83 "Hg

Humidity: 94%

Dew point: 59 °F

Location of IpswichLocation

Historic Weather in Ipswich — Graph

°F

Ipswich temperature yesterday

Maximum temperature yesterday: 68 °F (at 3:50 PM)
Minimum temperature yesterday: 59 °F (at 4:50 AM)
Average temperature yesterday: 62 °F

Past Weeks' High & Low Weather Summary

 TemperatureHumidityPressure
High75 °F (Sep 18, 1:50 PM)100% (Sep 4, 12:50 AM)30.33 "Hg (Sep 4, 12:50 AM)
Low48 °F (Sep 8, 1:50 AM)43% (Sep 8, 3:50 PM)29.80 "Hg (Sep 18, 12:50 PM)
Average60 °F83%30.08 "Hg
* Reported Sep 3 9:50 PM — Sep 18 9:50 PM, Ipswich, Weather by CustomWeather, © 2014

Note: Actual official high and low records may vary slightly from our data, if they occured in-between our weather recording intervals... More about our weather records

Advertising

Ipswich weather history for previous 24 hours

 ConditionsComfort  
Time TempWeatherWind HumidityBarometerVisibility
9:50 PM
Sep 18
61 °FFog.7 mph94%29.83 "Hg1 mi
8:50 PM64 °FPassing clouds.9 mph88%29.83 "Hg2 mi
7:50 PM66 °FBroken clouds.9 mph78%29.83 "Hg4 mi
6:50 PM68 °FPartly sunny.9 mph73%29.80 "HgN/A
5:50 PM70 °FSunny.8 mph69%29.80 "Hg10 mi
4:50 PM73 °FSunny.10 mph57%29.80 "Hg10 mi
3:50 PM75 °FSunny.9 mph50%29.80 "Hg10 mi
2:50 PM75 °FSunny.10 mph50%29.80 "Hg10 mi
1:50 PM75 °FSunny.10 mph54%29.80 "Hg10 mi
12:50 PM73 °FSunny.10 mph57%29.80 "Hg10 mi
11:50 AM73 °FSunny.10 mph65%29.83 "Hg10 mi
10:50 AM68 °FHaze.8 mph83%29.83 "Hg4 mi
10:35 AM66 °FHaze.9 mph88%29.83 "Hg3 mi
9:50 AM63 °FFog.9 mph94%29.83 "Hg2 mi
9:00 AM61 °FFog.12 mph100%29.83 "Hg1 mi
8:50 AM61 °FFog.12 mph100%29.83 "Hg0 mi
7:50 AM59 °FFog.10 mph100%29.83 "Hg0 mi
6:50 AM59 °FFog.7 mph100%29.83 "Hg0 mi
5:50 AM59 °FFog.8 mph100%29.83 "Hg0 mi
4:50 AM59 °FFog.9 mph100%29.83 "Hg0 mi
3:50 AM59 °FFog.9 mph100%29.83 "Hg0 mi
2:50 AM59 °FDrizzle. Dense fog.10 mph100%29.83 "Hg0 mi
1:50 AM59 °FDrizzle. Dense fog.10 mph100%29.83 "Hg0 mi
12:50 AM59 °FFog.10 mph100%29.86 "Hg0 mi
11:50 PM
Sep 17
59 °FFog.9 mph100%29.86 "Hg0 mi
Weather by CustomWeather, © 2014

See weather overviewHow to use our weather pages